Home > Weather > Murmansk > Past weeks

Flag for Russia Past Weather in Murmansk, Russia — Yesterday and Last 2 Weeks

Now
57 °F

Partly sunny.


Feels Like: 57 °F
Forecast: 50 / 55 °F
Wind: 3 mph from Southeast

Location: Murmansk Airport

Current Time: Jul 30, 2016 at 6:41:55 AM

Latest Report: Jul 30, 2016 at 6:00 AM


Visibility: N/A

Pressure: 29.77 "Hg

Humidity: 88%

Dew Point: 54 °F

Location of MurmanskLocation

Past Weather in Murmansk — Graph

°F

Murmansk Temperature Yesterday

Maximum temperature yesterday: 61 °F (at 6:00 PM)
Minimum temperature yesterday: 48 °F (at 3:30 AM)
Average temperature yesterday: 54 °F

High & Low Weather Summary for the Past Weeks

 TemperatureHumidityPressure
High81 °F (Jul 22, 5:00 PM)94% (Jul 15, 5:00 AM)30.21 "Hg (Jul 15, 5:00 AM)
Low45 °F (Jul 21, 2:30 AM)23% (Jul 22, 5:00 PM)29.56 "Hg (Jul 17, 5:30 AM)
Average61 °F68%29.95 "Hg
* Reported Jul 15 5:00 AM — Jul 30 5:00 AM, Murmansk, Weather by CustomWeather, © 2016

Note: Actual official high and low records may vary slightly from our data, if they occured in-between our weather recording intervals... More about our weather records

Advertising

Murmansk Weather History for the Previous 24 Hours

Scroll right to see more
 ConditionsComfort  
Time TempWeatherWind HumidityBarometerVisibility
5:00 AM
Sat, Jul 30
54 °FPartly sunny.3 mph94%29.77 "HgN/A
4:30 AM54 °FSprinkles. Scattered clouds.3 mph94%29.77 "HgN/A
4:00 AM54 °FSprinkles. Scattered clouds.6 mph88%29.77 "HgN/A
3:30 AM54 °FScattered clouds.3 mph88%29.77 "HgN/A
3:00 AM54 °FSunny.3 mph88%29.77 "Hg10 mi
2:30 AM54 °FClear.1 mph88%29.77 "Hg10 mi
2:00 AM54 °FClear.6 mph88%29.77 "Hg10 mi
1:30 AM54 °FClear.1 mph88%29.80 "Hg10 mi
1:00 AM54 °FClear.1 mph88%29.80 "Hg10 mi
12:30 AM54 °FClear.6 mph88%29.80 "Hg10 mi
12:00 AM54 °FClear.6 mph88%29.80 "Hg10 mi
11:30 PM
Fri, Jul 29
55 °FClear.6 mph88%29.77 "Hg10 mi
11:00 PM55 °FScattered clouds.6 mph88%29.80 "HgN/A
10:30 PM57 °FScattered clouds.6 mph82%29.77 "HgN/A
10:00 PM57 °FScattered clouds.1 mph82%29.80 "HgN/A
9:30 PM57 °FScattered clouds.1 mph88%29.80 "HgN/A
9:00 PM57 °FScattered clouds.6 mph82%29.80 "HgN/A
8:30 PM59 °FScattered clouds.6 mph82%29.80 "HgN/A
8:00 PM59 °FScattered clouds.3 mph82%29.80 "HgN/A
7:30 PM59 °FScattered clouds.6 mph77%29.80 "HgN/A
7:00 PM61 °FScattered clouds.6 mph77%29.80 "HgN/A
6:30 PM61 °FScattered clouds.8 mph77%29.80 "HgN/A
6:00 PM61 °FPartly sunny.8 mph77%29.80 "HgN/A
5:30 PM59 °FPartly sunny.8 mph82%29.83 "HgN/A
5:00 PM59 °FPartly sunny.6 mph77%29.83 "HgN/A
4:30 PM59 °FPartly sunny.6 mph82%29.83 "HgN/A
4:00 PM59 °FPartly sunny.8 mph77%29.83 "HgN/A
3:30 PM59 °FScattered clouds.8 mph82%29.83 "HgN/A
3:00 PM57 °FPartly sunny.6 mph88%29.83 "HgN/A
2:30 PM57 °FSprinkles. Partly sunny.8 mph88%29.86 "HgN/A
2:00 PM55 °FSprinkles. Partly sunny.6 mph88%29.86 "Hg4 mi
1:30 PM55 °FSprinkles. Partly sunny.8 mph88%29.86 "HgN/A
1:00 PM54 °FSprinkles. Partly sunny.8 mph94%29.86 "HgN/A
12:30 PM54 °FSprinkles. Partly sunny.8 mph88%29.86 "HgN/A
12:00 PM54 °FSprinkles. Partly sunny.10 mph88%29.86 "HgN/A
11:30 AM52 °FSprinkles. Partly sunny.8 mph94%29.86 "HgN/A
11:00 AM52 °FSprinkles. Partly sunny.10 mph94%29.89 "HgN/A
10:30 AM52 °FSprinkles. Partly sunny.8 mph94%29.89 "HgN/A
10:00 AM50 °FSprinkles. Broken clouds.10 mph94%29.89 "HgN/A
9:30 AM50 °FSprinkles. Broken clouds.10 mph88%29.89 "Hg4 mi
9:00 AM50 °FSprinkles. Broken clouds.10 mph88%29.89 "Hg6 mi
8:30 AM50 °FSprinkles. Broken clouds.10 mph88%29.89 "HgN/A
8:00 AM50 °FSprinkles. Broken clouds.8 mph88%29.89 "Hg4 mi
7:30 AM48 °FSprinkles. Broken clouds.8 mph94%29.89 "Hg4 mi
7:00 AM48 °FSprinkles. Partly sunny.8 mph94%29.92 "Hg2 mi
6:30 AM50 °FSprinkles. Partly sunny.8 mph88%29.92 "Hg3 mi
6:00 AM50 °FPartly sunny.8 mph82%29.92 "HgN/A
Weather by CustomWeather, © 2016

See weather overviewHow to use our weather pages